Location: Newark
(45.2500°N, 7.5833°E)
Time: 01:13:07
(UTC+00:00)

Vanguard 3 - Pass Details

Date: 04 February 2020
Orbit: 508 x 3263 km, 33.3° (Epoch: 26 February)

Event Time Altitude Azimuth Distance (km) Brightness Sun altitude
Rises 12:15:46 0° 203° (SSW) 5,198 12.4 28.0°
Reaches altitude 10° 12:19:29 10° 192° (SSW) 4,589 12.8 27.9°
Maximum altitude 12:30:23 28° 139° (SE) 4,165 11.5 27.5°
Drops below altitude 10° 12:44:45 10° 90° (E) 6,147 11.5 26.9°
Sets 12:50:45 0° 81° (E) 7,235 11.7 26.6°
